Location: Gorze? G�rny
(49.8500°N, 19.5000°E)
Time: 02:13:44
(UTC+00:00)

SL-24 R/B - RUBIN 2 - Pass Details

Date: 13 May 2021
Orbit: 583 x 1012 km, 64.6° (Epoch: 23 June)

Event Time Altitude Azimuth Distance (km) Brightness Sun altitude
Rises 21:07:33 0° 316° (NW) 3,408 8.6 -18.7°
Reaches altitude 10° 21:10:14 10° 311° (NW) 2,397 7.5 -18.8°
Maximum altitude 21:15:25 45° 240° (WSW) 1,005 4.5 -19.1°
Enters shadow 21:17:03 33° 194° (SSW) 1,190 4.6 -19.2°
